Moffett Field, CA

2:31 AM PDT on August 31, 2016 (GMT -0700)
Moffett Federal Air Field

Weather History for KNUQ - February, 2014

Change the Weather History Date:

Sunday, February 2, 2014

  Actual Average Record
Temperature  
Mean Temperature 49 °F 52 °F  
Max Temperature 55 °F 60 °F 71 °F (1976)
Min Temperature 42 °F 44 °F 28 °F (1950)
Degree Days  
Heating Degree Days 16    
Month to date heating degree days 32  
Since 1 July heating degree days 1229  
Cooling Degree Days 0    
Month to date cooling degree days 0  
Year to date cooling degree days 0  
Moisture  
Dew Point 39 °F    
Average Humidity 75    
Maximum Humidity 86    
Minimum Humidity 63    
Precipitation  
Precipitation 0.09 in 0.10 in 1.19 in (1958)
Month to date precipitation 0.09 0.19  
Year to date precipitation 0.17 2.94  
Since 1 July precipitation 1.43  
Sea Level Pressure  
Sea Level Pressure 29.95 in    
Wind  
Wind Speed 7 mph (SSE)    
Max Wind Speed 24 mph    
Max Gust Speed 32 mph    
Visibility 10 miles    
Events Rain    
T = Trace of Precipitation, MM = Missing Value Source: NWS Daily Summary

Daily Weather History Graph

Daily Weather History Graph

Search for Another Location

Airport or City:

Trip Planner

Search our weather history database for the weather conditions in past years. The results will help you decide how hot, cold, wet, or windy it might be!

Date:

Astronomy

Feb. 02, 2014 Rise Set
Actual Time 7:10 AM PST 5:33 PM PST
Civil Twilight 6:43 AM PST 6:01 PM PST
Nautical Twilight 6:11 AM PST 6:32 PM PST
Astronomical Twilight 5:41 AM PST 7:03 PM PST
Moon 8:45 AM PST (2/2) 9:18 PM PST (2/2)
Length of Visible Light 11h 18m
Length of Day
10h 23m
Waxing Crescent, 12% of the Moon is Illuminated
Feb 2
Waxing Crescent
Feb 6
First Quarter
Feb 14
Full
Feb 22
Last Quarter
Mar 1
New

Hourly Weather History & Observations

Time (PST) Temp. Windchill Dew Point Humidity Pressure Visibility Wind Dir Wind Speed Gust Speed Precip Events Conditions
12:56 AM 45.0 °F 43.5 °F 36.0 °F 71% 30.07 in 10.0 mi SE 3.5 mph - N/A   Clear
1:56 AM 45.0 °F 43.5 °F 36.0 °F 71% 30.04 in 10.0 mi SE 3.5 mph - N/A   Clear
2:56 AM 45.0 °F - 36.0 °F 71% 30.04 in 10.0 mi Calm Calm - N/A   Mostly Cloudy
3:56 AM 44.1 °F - 35.1 °F 71% 30.00 in 10.0 mi Calm Calm - N/A   Clear
4:56 AM 46.9 °F - 35.1 °F 63% 29.99 in 10.0 mi SE 8.1 mph - N/A   Clear
5:56 AM 46.9 °F - 35.1 °F 63% 29.97 in 10.0 mi SSE 6.9 mph - N/A   Overcast
6:56 AM 48.0 °F - 37.0 °F 66% 29.94 in 10.0 mi SE 8.1 mph - 0.00 in   Overcast
7:56 AM 46.9 °F - 39.0 °F 74% 29.94 in 10.0 mi ESE 6.9 mph - 0.01 in Rain Light Rain
8:56 AM 48.0 °F - 39.0 °F 71% 29.94 in 10.0 mi SE 11.5 mph - 0.03 in Rain Light Rain
9:56 AM 46.0 °F 39.3 °F 39.0 °F 76% 29.94 in 7.0 mi SE 16.1 mph 23.0 mph 0.04 in Rain Rain
10:56 AM 46.9 °F - 39.0 °F 74% 29.92 in 10.0 mi SE 18.4 mph 32.2 mph 0.01 in   Scattered Clouds
11:56 AM 48.0 °F - 39.0 °F 71% 29.90 in 10.0 mi SE 15.0 mph 24.2 mph N/A   Scattered Clouds
12:56 PM 51.1 °F - 39.9 °F 66% 29.88 in 10.0 mi SE 11.5 mph 19.6 mph N/A   Overcast
1:56 PM 52.0 °F - 41.0 °F 66% 29.87 in 10.0 mi SE 10.4 mph 20.7 mph N/A   Overcast
2:56 PM 53.1 °F - 42.1 °F 66% 29.88 in 10.0 mi ESE 6.9 mph - N/A   Mostly Cloudy
3:56 PM 54.0 °F - 41.0 °F 62% 29.88 in 10.0 mi SSE 8.1 mph - N/A   Mostly Cloudy
4:56 PM 54.0 °F - 42.1 °F 64% 29.89 in 10.0 mi South 4.6 mph - N/A   Overcast
5:56 PM 53.1 °F - 42.1 °F 66% 29.91 in 10.0 mi Calm Calm - N/A   Mostly Cloudy
6:56 PM 51.1 °F - 41.0 °F 68% 29.92 in 10.0 mi SE 5.8 mph - N/A   Clear
7:56 PM 48.9 °F - 41.0 °F 74% 29.94 in 10.0 mi Calm Calm - N/A   Scattered Clouds
8:56 PM 48.0 °F - 42.1 °F 80% 29.96 in 10.0 mi WSW 3.5 mph - N/A   Clear
9:56 PM 46.9 °F - 43.0 °F 86% 29.99 in 10.0 mi West 5.8 mph - N/A   Overcast
10:56 PM 46.9 °F - 43.0 °F 86% 29.99 in 10.0 mi Calm Calm - N/A   Overcast
11:56 PM 46.9 °F - 43.0 °F 86% 30.01 in 10.0 mi West 6.9 mph - N/A   Overcast